CAPE
2639 2871 3005 2933 2884 2756 2659 2502 2384 2248 2413 2585 2703 2902 2720 2757 2806 2566 2674 2893 2808 2850 3028 2856 2812 2652 2674 2694 2724 2775 2682 2654 2490 2345 1948 2273 2566 2976 2746 2753 2752 2444 2240 2242 2221 2327 2320 2165 2125 2110 1792 1556 1640 1852 1867 1574 1258 1327 1498 1577 1416 1452 1476 1600 1736 1823 1814 1746 1725 1663 1619 1402 1314 1283 1292 1352 1410 1549 1439 1241 1166 1261 1324 1281 1149
2869 3017 2917 3057 3056 2842 2860 2568 2290 2418 2534 2588 2788 2758 2697 2627 2805 2821 2746 2858 2869 2918 3040 2651 2610 2543 2660 2786 2765 2822 2883 3009 2856 2714 2367 2238 2560 2709 2689 2752 2667 2558 2466 2410 2408 2347 2234 2092 2127 2030 2022 1963 2010 1986 2013 1772 1571 1691 1611 1606 1625 1528 1394 1448 1495 1696 1698 1724 1822 1791 1682 1659 1483 1429 1367 1316 1394 1504 1532 1475 1266 1230 1384 1386 1207
2977 3171 3127 3053 3080 3142 2792 2540 2324 1787 2345 2477 2743 2942 2829 2818 3153 2918 2836 2933 2760 2898 2978 2248 2282 2576 2717 2832 2758 2766 2804 2832 2711 2657 2299 2323 2332 2718 3631 2565 2594 2732 2699 2589 2394 2461 2208 2128 2018 1944 1951 2001 2127 2182 2178 2071 1811 1808 1736 1546 1608 1718 1538 1356 1425 1482 1537 1693 1706 1808 1804 1693 1654 1580 1551 1480 1428 1461 1488 1470 1420 1378 1338 1362 1400
3570 3455 3198 3184 3181 2990 2730 2572 2458 2584 2591 2470 3047 3114 3035 3008 3168 3506 3316 2960 2777 2093 1958 1831 1638 1676 2312 2494 2726 2860 2761 2672 2451 2355 2522 2555 2444 2498 2789 3412 2669 2599 2706 2830 2688 2399 2250 2340 2290 2150 2016 2073 2088 2058 2287 2213 2003 1898 1756 1660 1571 1654 1793 1822 1630 1424 1376 1434 1630 1807 1792 1810 1770 1729 1792 1774 1718 1664 1636 1611 1559 1522 1486 1467 1523
3814 3637 3222 3154 3151 3427 2989 2502 2988 2880 2904 3106 3151 3031 2826 2871 2755 3155 2970 2740 2051 1744 1773 1313 1225 1778 1964 2036 2392 2550 2644 2634 2523 2504 2445 2687 2538 2400 2546 2674 2463 2433 2644 2678 2852 2660 2510 2442 2434 2174 1873 2156 2128 2014 1976 2241 2346 2184 1944 1710 1773 1730 1740 1732 1782 1875 1586 1456 1507 1637 1834 1910 1809 1735 1765 1831 1865 1882 1822 1779 1642 1558 1553 1557 1530
3824 3797 3552 3320 3252 3321 3053 2740 2806 2993 3024 3130 2836 2636 2496 2535 2613 2676 2401 2231 1722 1435 1024 829 536 872 882 999 1269 2115 2446 2451 2188 2219 2432 2422 2421 2669 2611 2585 2749 2511 2880 2521 2664 2837 2905 2736 2467 2101 2090 2172 1839 2065 1993 2031 2104 2205 1848 1778 1810 1986 1942 1915 1802 1892 1897 1823 1474 1454 1570 1818 1905 1896 1848 1821 1841 1908 1999 1992 1910 1857 1738 1665 1698
4186 3923 3581 3545 3326 2963 2915 3106 3004 2924 2801 2851 2873 2960 2863 2809 2646 2354 2503 1460 977 809 782 538 437 578 744 639 898 988 1496 1904 2245 2600 2607 2757 2857 2710 2602 2653 2610 2812 2916 2398 2427 2774 2814 2743 2418 2216 1920 1806 1766 1800 1774 2067 2089 2062 2047 1816 1841 1910 1954 1999 1837 1791 1814 1848 1830 1629 1567 1586 1691 1878 1923 1884 1853 1860 1970 2042 2123 2092 2010 1934 1788
4384 4028 3742 3570 3375 3209 3112 3239 3133 3056 3038 2958 2992 2725 2800 2713 2388 2158 993 765 720 536 444 534 578 638 688 676 694 826 1191 1426 2039 2424 2560 2788 2642 2685 2754 2727 2767 2737 2934 2674 2139 2640 2572 2698 2657 2334 2194 2261 2193 2036 2064 1950 1966 1921 1752 1826 1895 1884 1967 1928 1858 1814 1723 1811 1922 1854 1792 1710 1385 1228 1388 1674 1840 1915 1900 1983 2068 2157 2167 2093 2006
4274 4102 3845 3704 3393 3290 3086 3121 3162 2926 3126 3236 1944 1853 2638 1365 1297 921 924 977 453 312 361 579 578 670 659 690 672 808 773 1225 1622 1880 2247 2499 2582 2553 2644 2742 2972 2619 2814 2632 2725 2641 2572 2744 2634 2630 2550 2346 2090 1962 2004 1992 2048 1970 1859 1926 2048 2065 2038 1818 1765 1638 1564 1567 1509 1590 1650 1825 1868 1716 1631 1667 1594 1784 2008 1964 2094 2193 2223 2239 2174
4167 4052 3798 3581 2992 3056 2880 3126 3016 2559 1932 1771 1597 1351 1178 857 986 1097 887 915 433 334 642 642 714 772 758 486 630 690 881 1069 1210 1536 1646 1903 2504 2599 2703 2878 2774 2750 2638 2624 2458 2640 2486 2622 2688 2432 2381 2147 1886 1923 1978 2018 2001 1887 1864 1846 1936 1947 1664 1719 1424 1218 1442 1508 1456 1537 1373 1468 1419 1552 1732 1624 1607 1884 1855 1967 2047 2178 2303 2292 2306
3996 3590 3590 3411 3060 3306 2781 2640 1752 1914 1742 1205 1137 1036 1026 951 995 808 1050 1102 1028 852 856 838 962 808 700 664 672 1206 1125 1021 1238 1107 1371 1164 2358 2284 2796 2830 2821 2667 2619 2591 2389 2444 2541 2514 1862 2845 2732 2058 2180 2117 2254 2175 1948 1894 1814 1829 1860 1642 1415 1335 1102 1416 1307 1508 1438 1349 1194 1229 1631 1829 1863 1848 1704 1875 2182 2042 2010 2141 2262 2328 2322
4008 3910 3373 3091 2517 2264 1946 1905 1638 1490 1228 926 986 580 1010 825 696 694 1206 1075 892 919 917 978 804 730 734 816 954 1079 1407 1096 1042 889 1267 1429 2156 2428 2171 2338 2491 2390 2354 2342 2218 2265 2453 2812 2620 2568 2534 2512 2221 2188 2094 2186 2164 2101 2046 1844 1658 1458 1481 1267 1206 1284 1291 1386 1311 1319 1305 1498 1762 1901 1934 1849 1828 2099 2164 2137 2157 2120 2182 2311 2420
3830 3531 2804 2804 2696 1858 1812 1865 1370 1104 1133 996 1060 932 993 840 876 1272 1164 1075 830 924 909 916 936 634 770 722 817 1118 1162 1124 770 648 630 754 984 1884 1996 1962 2014 2110 2006 2045 2099 2034 2048 2324 2440 2497 2378 2809 2676 2150 2099 2148 2110 1959 1926 1754 1476 1348 1419 1374 1332 1245 1244 1266 1132 1105 1181 1293 1476 1753 1906 1985 1944 1902 2080 2130 2118 2133 2131 2122 2237
3559 3470 2979 2393 1974 1612 1782 1520 1395 1184 1186 1216 1252 905 876 955 919 829 1029 915 852 762 812 867 633 602 713 713 689 748 956 674 420 454 501 691 799 841 950 692 514 812 990 1720 1651 1396 1486 1622 2019 2116 2256 2306 2246 1957 2056 2164 1583 1448 1364 1138 1046 1070 1169 1336 1327 1297 1390 1355 1335 1186 1238 1206 1274 1404 1586 1728 1820 1768 1790 1944 2043 2046 2119 2184 2171
3217 3310 2242 2098 1869 1594 1559 1496 1274 1199 1340 988 1050 918 893 765 932 821 741 699 489 763 743 803 652 610 710 814 412 615 931 1046 486 363 386 426 348 333 274 273 385 505 533 546 564 996 974 1214 1359 1351 1782 1709 1932 1824 1818 1766 1258 1131 1039 885 896 745 850 1124 1390 1264 1302 1436 1468 1450 1568 1598 1225 1218 1277 1278 1306 1475 1696 1836 1999 2108 2014 2103 2097
2634 2471 1978 1890 1768 1681 1446 1418 1462 1380 1032 404 718 810 734 864 876 886 830 679 500 445 654 652 600 795 480 332 530 436 724 577 409 503 295 248 194 235 184 212 254 477 235 282 374 601 774 1018 1010 968 930 1144 1350 1470 1502 1574 1078 1122 942 982 905 964 1118 1252 1532 1408 1488 1554 1665 1536 1495 1512 1557 1550 1543 1490 1392 1338 1578 1810 1977 2065 2128 2052 2110
2417 2234 1978 2030 1821 1708 1546 1510 1461 1238 438 366 573 665 892 821 843 814 714 599 337 440 385 586 564 729 642 566 334 400 132 367 346 742 192 214 169 200 27 5 31 182 177 208 451 387 434 674 832 808 795 797 792 878 1105 1070 1177 1211 832 379 412 512 677 906 1187 1387 1473 1660 1900 1862 1729 1677 1576 1608 1711 1646 1442 1235 1442 1537 1946 2024 2085 2122 2100
2510 2362 1979 1970 1985 1770 1700 1590 1064 667 260 425 607 542 895 912 665 692 639 643 600 173 369 586 463 710 776 695 528 578 473 390 356 396 443 198 120 38 0 0 0 0 1 34 10 107 105 154 374 372 385 376 361 264 367 141 216 653 100 40 16 0 4 14 256 599 782 968 1385 1526 1664 1753 1746 1782 1627 1389 1528 1536 1616 1694 1908 2115 2122 2171 2223
2326 2215 2165 2056 2078 1969 1723 1198 441 394 420 645 694 762 684 791 661 657 640 736 619 428 217 186 485 465 453 411 463 348 463 452 354 290 315 298 200 16 0 0 0 0 0 0 0 2 29 10 4 36 22 35 17 33 5 0 24 133 0 2 0 0 0 0 0 22 249 594 789 947 1047 1238 1554 1654 1705 1673 1758 1760 1784 1790 1860 1983 2084 2145 2211
2290 2396 2084 1816 1472 1332 1298 491 339 379 660 686 820 710 805 785 809 690 715 622 570 518 384 286 316 294 408 309 285 344 452 276 475 331 304 185 171 26 2 0 0 0 0 0 0 0 1 0 0 0 0 0 0 0 0 0 0 1 0 0 0 0 0 0 0 0 14 19 360 573 738 845 936 1059 1226 1582 1666 1540 1660 1767 1822 1851 1946 2037 2198
2315 2158 1971 1430 1315 1192 887 495 460 715 648 717 674 704 947 916 838 742 638 660 544 500 522 395 272 312 250 339 234 194 133 160 149 180 175 107 74 43 30 8 15 0 0 0 0 0 0 0 0 0 0 0 0 0 0 0 0 0 0 0 0 0 0 0 0 0 0 0 0 2 124 493 694 813 907 1052 1188 1473 1537 1497 1574 1443 1379 1506 1487
2369 1989 1806 1424 1255 768 584 492 652 686 764 823 714 750 889 837 837 710 645 573 529 556 452 419 318 346 260 255 225 190 231 131 26 59 65 102 53 26 39 30 41 6 0 0 0 0 0 0 0 0 0 0 0 0 0 0 0 0 0 0 0 0 0 0 0 0 0 0 0 0 0 0 11 328 584 730 906 1065 1296 1238 1393 1412 1474 1582 1432
1823 1901 1688 1289 841 514 325 470 606 760 793 840 781 548 438 525 696 757 706 682 511 511 439 438 428 346 284 262 144 126 238 193 104 69 40 20 20 23 20 15 16 32 17 0 0 0 0 0 0 0 0 0 0 0 0 0 0 1 0 0 0 0 0 0 0 0 0 0 0 0 0 0 0 5 17 92 481 670 891 1054 1188 1278 1399 1386 1427
1678 1436 1199 811 608 564 427 502 681 766 794 797 734 476 322 474 618 710 675 608 628 618 493 366 375 338 240 154 192 218 189 166 65 65 14 19 14 19 24 28 24 22 6 11 0 0 0 0 0 0 0 0 0 0 7 19 23 6 4 0 0 0 0 0 0 0 0 0 0 0 0 0 0 0 0 0 12 89 411 688 963 1152 1197 1266 1397
1767 1136 966 726 725 838 665 628 854 745 650 537 466 518 405 426 674 738 645 638 582 519 450 382 364 300 289 268 223 194 201 174 162 110 77 55 53 32 3 6 28 16 14 19 11 4 0 0 0 0 0 0 0 68 60 25 42 30 2 0 0 0 0 0 0 0 0 0 0 0 0 0 0 0 0 0 0 0 1 35 416 739 1096 1213 1223
1617 1111 895 668 686 800 882 796 884 865 693 764 687 684 655 535 662 818 645 596 550 551 474 362 357 365 316 254 227 214 186 129 173 178 29 30 30 9 19 19 31 9 24 55 44 8 4 1 2 2 0 3 0 55 130 42 59 48 5 12 14 3 0 0 0 0 0 0 0 0 0 0 0 0 0 0 0 0 0 0 15 58 416 792 1140
1376 1249 888 758 728 832 976 841 848 918 792 808 901 948 969 833 859 937 687 531 563 493 426 374 297 356 400 407 243 294 160 230 67 167 134 54 30 23 47 24 8 6 12 8 18 50 18 3 1 0 7 30 18 54 112 116 72 51 82 130 25 8 0 0 0 0 0 0 0 0 0 0 0 0 0 0 0 0 0 0 0 2 35 162 461
1421 1342 1150 890 860 903 1059 817 914 949 941 936 989 816 1012 941 1054 804 733 560 566 569 543 469 377 335 323 358 432 170 144 160 165 125 131 124 130 163 86 88 30 19 15 14 6 4 2 6 5 15 29 42 63 70 72 130 113 101 180 210 22 2 10 0 0 0 0 0 0 0 0 0 0 0 0 0 0 0 0 0 0 0 0 10 68
1673 1524 1383 1058 971 962 989 751 844 972 974 1059 903 786 1017 926 802 950 708 476 574 612 492 504 380 240 198 258 262 231 271 349 388 275 333 457 287 257 284 117 82 31 28 26 20 3 8 0 6 20 22 85 190 163 135 176 38 106 89 71 82 21 0 0 0 0 0 0 0 0 0 0 0 0 0 0 0 0 0 0 0 0 0 0 1
1703 1474 1238 1159 1006 987 910 788 775 843 805 839 774 779 992 915 867 978 785 610 569 568 494 367 276 242 240 237 210 218 223 324 418 482 484 564 357 396 443 358 283 123 37 36 22 14 4 6 4 25 37 38 43 89 134 214 38 287 316 170 116 66 0 0 0 0 0 0 0 0 0 0 0 0 0 0 0 0 0 0 0 0 0 0 0
1681 1362 1109 1076 1004 1086 944 844 789 844 843 643 790 777 952 825 662 763 671 566 548 474 414 372 293 260 298 258 228 247 266 193 277 297 922 1349 979 622 508 488 566 226 152 68 46 10 6 8 30 56 134 216 198 200 156 198 196 112 258 345 359 111 37 82 0 0 0 0 0 0 0 0 0 0 0 0 0 0 0 0 0 0 0 0 0
1524 1414 1026 749 922 946 914 660 514 673 714 616 630 742 786 637 510 404 432 589 591 532 378 259 201 249 288 298 279 348 338 440 497 393 620 1150 1429 1355 1005 561 471 334 376 220 47 160 39 8 11 67 281 417 218 152 187 141 98 104 317 308 401 357 416 356 220 1 0 0 0 0 0 0 0 0 0 0 0 0 0 0 0 0 0 0 0
1274 1187 991 735 912 1002 767 664 478 470 664 554 508 542 547 671 604 659 541 561 610 485 438 382 280 258 292 328 360 385 394 472 538 491 159 136 163 191 166 130 58 68 164 139 104 200 162 22 10 14 62 142 146 131 127 153 188 120 9 48 88 144 242 240 112 0 0 0 0 0 0 0 0 0 0 0 0 0 0 0 0 0 0 0 0
1294 850 901 848 978 965 716 503 476 540 645 708 568 435 563 600 653 549 450 430 544 567 467 450 380 316 304 384 382 315 429 586 733 694 234 54 47 36 16 12 23 41 39 106 120 149 303 98 10 0 20 12 56 136 78 132 192 59 5 3 9 42 285 244 130 142 0 0 0 0 0 0 0 0 0 0 0 0 0 0 0 0 0 0 0
1362 848 845 906 1024 1112 859 550 642 730 816 919 682 526 566 607 608 476 400 510 570 515 498 516 453 385 354 370 348 331 284 281 373 498 413 280 142 78 46 27 45 41 36 63 131 192 265 263 75 10 15 56 6 69 120 78 86 36 7 9 7 14 108 195 236 215 115 13 0 0 0 0 0 0 0 0 0 0 0 0 0 0 0 0 0
1274 1200 942 1082 1179 1296 1047 681 721 869 896 924 754 574 788 875 730 608 611 626 597 560 564 580 465 458 468 474 462 341 303 395 446 446 335 209 184 194 174 150 131 136 128 98 110 166 178 228 320 52 14 120 6 22 68 90 8 7 11 12 11 10 37 66 149 150 125 30 4 0 0 0 0 0 0 0 0 0 0 0 0 0 0 0 0
1246 1420 1330 1329 1310 1412 1063 781 726 732 744 855 750 604 691 762 783 741 777 858 844 852 728 644 547 573 521 577 438 419 442 476 482 517 347 308 288 131 119 100 73 66 42 51 59 109 118 159 296 301 125 35 12 51 75 18 7 6 16 10 8 8 20 46 18 52 26 23 20 3 0 0 0 0 0 0 0 0 0 0 0 0 0 0 0
876 1012 1202 1233 1288 1286 1098 832 768 651 709 766 728 729 647 714 842 866 806 851 822 884 779 665 624 610 581 625 569 525 532 548 603 692 504 332 278 212 238 244 165 94 98 77 54 66 79 97 172 182 289 90 24 44 74 26 10 6 7 8 6 14 51 82 74 82 138 190 246 221 116 94 33 0 0 0 0 0 0 0 0 0 0 0 0
724 698 828 963 1091 1131 1144 1061 792 658 760 810 939 1035 978 820 891 1016 907 863 968 958 908 768 540 406 534 687 719 643 602 636 698 798 813 656 463 450 391 373 416 293 256 188 48 40 52 56 46 80 123 166 113 107 38 28 12 13 37 29 46 23 48 54 114 74 90 95 74 64 95 81 48 30 0 0 0 0 0 0 0 0 0 0 0
633 586 561 853 872 877 956 1080 990 814 800 954 1106 1062 840 849 912 1018 1197 1128 950 842 908 906 709 442 456 600 606 659 679 672 703 742 864 852 562 510 502 390 274 252 232 325 98 36 32 26 38 84 139 213 301 216 111 64 54 90 32 8 29 71 102 194 180 154 234 220 213 160 53 46 93 49 0 0 0 0 0 0 0 0 0 0 0
476 416 388 454 678 1015 1038 1161 1100 890 802 923 886 772 926 1066 1134 1070 1191 1162 1108 848 672 619 572 678 549 395 420 422 300 724 711 744 802 880 915 711 546 506 454 608 610 552 186 102 80 71 117 136 88 126 176 185 100 121 92 60 85 66 100 212 189 150 232 236 264 219 209 262 247 115 19 35 30 42 36 29 58 0 10 0 0 0 0
752 713 369 406 532 996 1084 1190 1089 1053 995 896 837 672 792 1036 1154 1260 1128 1057 1018 854 719 726 646 522 484 575 395 422 649 899 977 818 712 642 473 822 975 702 704 517 574 704 676 364 122 80 84 39 39 64 62 109 122 120 150 139 111 115 125 210 227 230 300 301 254 162 160 239 302 265 132 91 61 13 2 32 8 29 16 0 0 0 0
963 1134 999 826 729 971 1012 982 1086 1060 1024 963 881 817 716 506 848 702 901 963 1063 986 774 746 771 621 456 438 586 758 1146 935 1271 675 676 468 59 297 203 25 395 1111 806 646 662 310 111 79 56 62 70 117 193 242 226 128 149 164 232 186 202 236 188 157 220 352 378 330 349 314 283 332 284 202 164 58 15 7 0 0 0 0 0 0 0
1387 1326 1216 1214 1244 1072 1009 971 1042 1138 1108 954 876 726 430 3 174 864 533 557 842 883 864 773 681 637 668 587 373 389 573 819 813 1382 911 423 383 254 223 214 0 0 0 601 626 518 373 142 65 117 130 162 216 248 290 247 249 256 312 388 466 464 456 291 262 260 384 441 388 268 287 390 325 228 100 80 4 16 8 0 0 0 0 0 0
1397 1607 1453 1425 1629 1463 1210 1168 1014 978 1044 906 780 522 116 0 0 232 496 406 566 840 846 786 784 742 735 716 704 492 464 944 1000 880 610 1194 1406 1114 896 639 414 237 13 0 0 531 602 329 222 224 300 291 278 294 426 451 445 386 419 476 625 528 317 325 312 262 399 629 562 401 231 193 167 80 11 10 8 23 8 0 0 0 0 0 0
1377 1550 1232 1282 1564 1545 1332 1248 1123 1045 1010 647 526 416 0 0 0 80 539 488 614 786 893 915 880 837 804 736 770 779 736 817 1049 1388 1664 1547 1480 1868 1645 1259 1318 878 524 396 265 160 240 461 656 436 416 524 582 708 760 616 422 489 519 615 487 269 384 389 418 378 446 470 339 234 135 172 151 41 18 24 17 41 58 14 0 0 0 0 0
1438 1490 1196 1600 1576 1553 1306 1204 1296 1304 1270 614 484 380 0 0 0 4 406 594 685 834 920 1040 1130 1090 994 1016 948 922 988 1183 1213 1475 2119 2099 1816 1672 1579 1464 1292 1408 1318 1133 784 760 714 631 712 648 638 688 728 792 628 400 337 393 302 199 224 282 212 202 219 276 324 377 410 320 212 224 97 34 34 21 8 19 40 2 0 0 0 0 0
880 1050 1598 1296 1434 1504 1460 1408 1222 1266 1188 673 482 369 0 0 0 16 365 588 791 953 1079 1132 1151 1057 1114 1297 1354 1404 1555 1883 1584 1333 1472 1635 1313 1078 1226 1385 1260 1200 809 416 402 386 568 544 216 348 636 641 406 406 251 105 209 270 289 180 168 202 185 179 236 244 220 179 158 174 114 49 22 1 2 10 2 11 12 1 0 0 0 0 0
748 905 1094 593 1339 1449 1323 1410 1425 1362 1381 1452 694 421 311 83 0 247 498 668 905 1200 1318 1188 1180 1440 1648 1823 2058 2054 1648 1494 1430 1284 1034 586 757 786 1016 1180 653 400 330 538 346 352 478 6 0 0 0 0 0 0 0 0 0 24 43 103 126 202 226 110 162 177 222 114 82 100 24 13 15 4 2 0 0 0 0 0 1 0 0 0 0
841 556 1000 1106 1534 1368 1129 1252 1196 1276 1627 1412 1201 874 477 36 24 628 931 1220 1456 1510 1420 1419 1462 1382 1353 1389 1414 1373 1004 1004 860 413 77 170 538 783 1113 1105 1022 947 920 876 941 1078 364 112 0 0 0 0 0 0 0 0 0 0 103 103 212 222 171 110 48 88 109 78 96 53 34 14 4 10 16 2 0 0 6 8 1 2 0 0 0
952 978 993 816 1273 1373 1268 1298 1397 1446 1497 1234 984 932 848 772 654 676 1011 1367 1457 1351 1292 1250 1235 1344 1454 1279 810 625 802 1086 572 342 0 184 674 761 1023 1012 1000 1033 985 1009 730 616 662 710 620 484 469 440 214 498 538 28 0 0 86 227 359 441 128 64 30 29 13 27 13 56 23 8 17 13 36 18 14 3 6 0 0 0 0 0 0
Wind_Speed
8 8 8 9 9 10 11 11 11 12 11 12 11 12 12 10 10 10 10 10 12 12 12 13 13 13 13 13 13 13 13 13 12 12 12 11 11 14 17 14 12 12 13 12 10 10 11 12 12 11 11 13 13 11 9 9 7 8 7 4 3 4 5 5 5 6 5 5 4 4 5 5 4 3 3 3 3 3 3 3 3 2 2 3 3
7 6 7 7 8 9 10 12 9 10 11 10 10 10 10 9 9 9 9 10 11 12 11 11 12 12 11 11 12 12 12 12 12 12 11 11 11 11 17 15 13 12 12 11 10 9 9 10 11 10 10 11 11 13 13 11 9 7 7 6 3 4 5 6 5 5 5 6 6 5 5 4 4 4 3 2 3 3 3 3 3 2 2 2 4
5 6 6 7 8 9 10 9 10 4 7 10 9 9 9 9 8 9 9 9 10 10 11 11 11 11 12 12 12 12 12 11 11 12 13 12 11 11 15 16 14 13 12 11 11 9 8 8 10 11 10 10 10 10 11 11 9 8 7 6 5 4 4 5 6 5 5 5 6 6 5 4 4 4 3 3 3 3 3 3 3 2 2 3 4
5 6 6 7 8 8 9 9 7 12 9 8 8 9 9 9 10 10 10 11 11 11 11 11 10 10 10 11 11 12 12 12 11 11 10 11 11 12 12 15 15 15 14 13 13 11 9 8 9 11 10 9 10 11 10 8 7 8 8 7 7 6 7 6 5 6 5 5 6 7 6 5 4 4 4 3 3 3 3 3 3 2 3 3 4
5 5 6 7 7 7 9 8 8 9 10 9 9 9 10 12 12 11 11 11 10 10 11 11 10 10 10 10 10 11 11 12 12 13 12 12 12 12 12 13 16 16 15 14 16 15 12 11 11 12 9 9 10 9 10 10 7 8 9 9 9 7 8 6 6 6 5 5 5 6 7 6 4 4 4 4 3 4 4 4 3 3 3 3 4
5 5 6 6 7 7 8 8 10 10 10 11 10 10 10 9 9 11 10 10 9 10 9 9 10 11 10 10 11 11 11 12 13 13 13 12 11 11 11 12 13 15 14 16 15 15 16 13 13 12 9 7 7 7 8 9 9 7 7 10 12 9 7 6 6 7 8 7 4 4 5 5 4 3 3 4 4 4 4 4 4 4 3 4 4
6 5 5 5 7 8 8 9 9 9 10 11 11 11 11 12 12 11 10 11 10 9 9 8 8 9 10 11 11 11 12 12 12 13 14 14 13 12 12 11 13 11 13 15 16 16 16 15 14 13 10 8 8 7 7 6 7 8 8 9 8 9 8 8 8 9 10 10 8 5 4 4 4 2 0 1 2 3 4 4 4 4 4 4 4
7 7 6 7 6 6 8 9 9 9 10 11 12 12 12 11 11 11 10 9 8 9 9 9 9 10 10 11 12 13 13 14 14 13 14 14 15 15 14 13 13 12 11 10 15 17 18 15 15 16 15 13 10 9 7 7 6 6 8 9 8 7 9 11 12 11 11 12 11 9 7 5 5 2 1 2 2 1 2 3 4 4 4 5 4
8 8 7 7 6 6 8 10 10 10 11 11 11 11 11 11 12 11 10 10 10 9 10 10 9 9 10 12 13 13 14 14 15 15 15 15 15 15 15 14 13 13 13 12 11 17 17 19 16 16 17 15 13 11 9 6 7 7 7 7 7 6 7 12 15 15 15 15 15 14 11 8 5 4 3 1 2 2 1 2 4 4 4 4 4
8 8 7 6 6 6 6 8 9 9 9 10 10 10 11 10 10 11 11 11 12 11 11 9 9 9 10 10 13 14 14 15 15 15 16 16 16 16 15 15 13 14 13 12 11 12 17 19 20 19 17 15 13 12 9 8 7 6 7 6 4 3 6 13 21 23 24 23 22 21 19 15 12 9 6 3 2 1 2 1 2 4 4 4 4
7 8 8 7 7 7 6 8 7 8 9 9 11 11 11 11 11 11 13 13 12 12 11 10 9 9 11 12 13 15 15 15 15 16 15 16 16 16 17 16 16 15 14 13 13 13 12 15 15 14 16 19 12 11 10 7 4 5 5 6 6 9 15 22 28 26 22 20 17 13 8 7 8 7 4 2 2 1 1 1 2 2 4 3 3
8 9 9 8 8 8 8 9 9 9 10 10 10 11 11 11 12 12 12 13 13 12 13 12 10 11 10 11 14 16 16 17 17 16 16 16 16 17 17 17 17 16 16 15 14 13 14 14 12 12 12 20 15 9 8 7 5 5 7 9 12 20 28 25 21 19 19 18 14 10 9 10 9 8 6 3 1 1 1 1 1 1 2 3 2
10 10 10 10 9 10 12 13 12 12 12 12 12 11 13 13 13 13 12 11 13 14 15 12 12 13 14 14 17 17 19 19 18 18 17 16 16 17 17 17 16 17 17 16 16 16 17 16 15 15 14 14 17 16 11 11 9 8 9 14 22 25 19 15 14 13 13 16 17 17 17 17 15 12 11 8 6 5 4 3 2 1 1 1 1
12 12 11 12 12 14 14 15 15 15 15 14 14 14 15 14 13 13 14 12 11 12 14 11 14 13 12 14 17 20 20 20 20 19 19 18 18 18 17 18 17 16 16 18 17 17 17 18 17 17 17 15 14 18 16 15 15 20 22 24 29 25 20 17 16 15 14 14 16 18 16 15 14 14 14 12 12 9 7 5 4 3 2 2 1
14 14 13 14 15 15 16 17 16 17 17 16 17 16 16 14 14 12 13 15 13 14 13 13 12 13 14 14 18 20 21 20 18 20 20 19 19 19 17 18 18 18 18 17 18 18 18 19 19 18 18 17 17 17 17 20 24 23 26 30 32 23 22 22 21 19 16 15 15 14 15 18 17 14 13 13 14 12 9 6 5 4 3 3 2
16 17 17 17 17 17 17 17 18 18 17 17 17 16 17 16 15 14 13 11 15 15 15 14 13 12 16 14 16 15 24 20 19 19 20 19 19 22 19 19 21 18 19 19 20 20 20 20 20 20 20 19 18 18 18 20 23 24 29 34 33 30 28 28 28 26 22 19 16 13 14 17 18 17 15 14 13 12 12 10 7 5 4 4 3
18 19 19 19 19 18 18 19 19 19 19 18 18 16 15 15 15 14 13 12 12 16 15 15 15 15 14 14 18 20 18 20 17 18 15 19 18 22 nan nan nan 20 19 21 20 20 21 21 20 22 21 21 20 19 20 21 22 24 29 34 33 32 31 31 31 29 27 25 22 18 15 15 17 20 19 17 15 13 13 12 11 8 5 5 4
19 19 20 20 20 20 19 20 19 21 19 18 17 16 15 14 16 13 15 15 13 13 15 17 14 15 16 16 16 16 17 18 18 20 19 20 21 nan nan nan nan nan nan nan nan 20 20 21 22 22 21 21 20 19 20 22 22 25 nan nan nan nan nan nan 32 32 32 31 29 27 25 23 19 18 20 19 17 15 14 14 14 12 9 7 5
19 19 20 20 20 20 20 20 20 21 21 19 18 16 16 15 15 15 15 16 15 14 14 16 17 16 17 16 17 19 20 18 20 18 22 19 15 nan nan nan nan nan nan nan nan nan nan nan nan nan nan nan nan nan nan nan nan 27 nan nan nan nan nan nan nan nan 32 33 35 35 34 33 30 25 21 20 18 18 16 15 15 15 13 11 8
18 19 18 19 19 20 20 21 21 21 21 20 18 17 16 16 15 15 16 15 15 14 14 16 15 18 18 16 18 19 20 21 20 19 18 20 22 nan nan nan nan nan nan nan nan nan nan nan nan nan nan nan nan nan nan nan nan nan nan nan nan nan nan nan nan nan nan nan 35 36 36 36 35 33 31 26 23 21 19 17 16 16 16 14 13
17 18 18 19 20 21 22 21 21 21 21 20 19 18 16 16 16 16 16 16 15 16 16 16 15 18 17 19 18 19 21 21 21 22 19 19 nan nan nan nan nan nan nan nan nan nan nan nan nan nan nan nan nan nan nan nan nan nan nan nan nan nan nan nan nan nan nan nan nan nan 36 37 37 36 35 35 34 31 25 22 21 20 20 20 19
16 18 19 20 22 22 22 22 22 21 21 19 18 18 16 16 16 16 16 15 17 17 16 18 17 18 17 18 18 21 22 23 nan nan nan 22 nan nan nan nan nan nan nan nan nan nan nan nan nan nan nan nan nan nan nan nan nan nan nan nan nan nan nan nan nan nan nan nan nan nan nan nan nan 38 37 37 36 37 38 33 27 25 24 22 19
16 18 20 22 22 22 22 23 22 22 21 20 18 16 17 17 16 16 16 15 17 18 18 19 18 18 19 19 18 19 21 20 21 nan nan nan nan nan nan nan nan nan nan nan nan nan nan nan nan nan nan nan nan nan nan nan nan nan nan nan nan nan nan nan nan nan nan nan nan nan nan nan nan nan nan nan 38 38 38 42 41 32 26 25 22
18 20 21 23 23 23 22 22 22 22 22 20 18 16 15 17 16 15 16 16 17 18 18 19 20 20 20 21 20 20 23 23 nan nan nan nan nan nan nan nan nan nan nan nan nan nan nan nan nan nan nan nan nan nan nan nan nan nan nan nan nan nan nan nan nan nan nan nan nan nan nan nan nan nan nan nan nan nan 40 41 42 42 36 28 25
21 21 23 24 25 23 23 22 22 22 22 21 19 18 16 17 16 15 16 17 17 18 19 20 20 20 20 20 19 21 23 24 24 23 nan nan nan nan nan nan nan nan nan nan nan nan nan nan nan nan nan nan nan nan nan nan nan nan nan nan nan nan nan nan nan nan nan nan nan nan nan nan nan nan nan nan nan nan nan nan 42 41 40 39 33
23 24 24 25 25 24 22 21 21 22 23 22 20 18 18 18 17 16 17 17 18 18 18 19 20 20 20 19 20 21 21 22 22 22 nan nan nan nan nan nan nan nan nan nan nan nan nan nan nan nan nan nan nan nan 23 nan nan nan nan nan nan nan nan nan nan nan nan nan nan nan nan nan nan nan nan nan nan nan nan nan nan nan 40 39 39
23 24 25 26 25 24 22 20 21 22 23 22 21 19 19 19 18 17 17 18 19 18 19 19 20 20 19 18 19 20 20 20 nan 21 22 nan nan nan nan nan nan nan nan nan nan nan nan nan nan nan nan nan nan nan 24 23 nan nan nan 24 nan nan nan nan nan nan nan nan nan nan nan nan nan nan nan nan nan nan nan nan nan nan nan 40 40
22 24 26 26 26 25 23 21 21 22 22 22 21 20 20 19 20 19 18 19 19 19 19 20 20 19 18 19 21 20 21 20 19 20 21 21 21 21 nan nan nan nan nan nan nan nan nan nan nan nan nan nan nan nan nan 26 25 33 28 26 nan nan nan nan nan nan nan nan nan nan nan nan nan nan nan nan nan nan nan nan nan nan nan nan nan
23 25 25 25 26 25 24 22 22 21 22 22 22 20 20 20 21 20 18 18 19 18 19 21 20 19 18 20 22 22 20 19 18 19 20 22 23 23 23 21 nan nan nan nan nan nan nan nan nan nan nan nan 29 28 27 27 nan 30 nan nan nan nan nan nan nan nan nan nan nan nan nan nan nan nan nan nan nan nan nan nan nan nan nan nan nan
24 24 25 25 25 25 23 23 22 21 21 22 22 21 20 20 21 21 19 18 18 18 20 21 20 19 19 20 22 20 19 19 20 21 24 26 26 27 27 26 25 22 nan nan nan nan nan nan nan nan nan nan nan nan 31 30 nan 32 27 28 28 nan nan nan nan nan nan nan nan nan nan nan nan nan nan nan nan nan nan nan nan nan nan nan nan
27 26 26 25 24 25 24 24 24 22 22 22 22 21 20 20 21 20 20 19 18 19 20 21 21 20 18 19 20 19 19 19 21 23 26 28 29 28 28 28 27 25 22 nan nan nan nan nan nan nan 30 29 30 31 33 34 32 30 29 29 28 28 nan nan nan nan nan nan nan nan nan nan nan nan nan nan nan nan nan nan nan nan nan nan nan
29 29 27 26 25 25 25 25 25 25 24 22 22 22 20 20 21 20 21 21 19 19 19 21 21 21 19 19 19 19 20 21 23 25 27 28 27 27 28 28 28 27 26 22 nan 19 nan nan nan nan 30 31 31 32 33 34 nan 35 31 31 30 29 30 31 34 nan nan nan nan nan nan nan nan nan nan nan nan nan nan nan nan nan nan nan nan
32 32 30 28 28 27 25 25 26 26 25 24 24 23 22 22 22 21 21 21 20 20 20 21 21 21 21 21 20 20 21 22 25 26 27 27 28 28 28 28 nan nan 27 25 22 21 24 nan nan nan nan 32 32 34 34 35 35 34 nan nan nan 31 31 32 32 nan nan nan nan nan nan nan nan nan nan nan nan nan nan nan nan nan nan nan nan
36 35 34 32 29 29 29 28 28 28 28 26 25 25 24 24 24 24 22 21 20 20 20 21 21 22 23 23 23 22 23 24 26 27 28 nan nan nan nan nan nan nan nan 27 25 23 23 nan nan nan nan nan nan 35 nan 35 35 nan nan nan nan nan 34 34 34 34 nan nan nan nan nan nan nan nan nan nan nan nan nan nan nan nan nan nan nan
41 38 37 35 32 32 34 34 32 32 30 28 27 26 26 26 26 24 23 22 21 20 21 21 21 22 22 23 24 26 26 26 27 29 30 32 33 nan nan nan nan nan nan nan 28 25 23 25 nan nan nan nan nan nan 35 nan nan nan nan nan nan nan 38 37 35 34 31 nan nan nan nan nan nan nan nan nan nan nan nan nan nan nan nan nan nan
41 42 40 38 37 38 39 38 35 33 32 30 28 27 26 26 25 23 23 23 21 21 20 20 20 22 22 23 25 27 27 26 27 29 32 34 36 36 35 33 32 30 29 nan 30 29 26 25 29 nan nan 32 nan nan nan nan nan nan nan nan nan nan nan nan 36 33 31 nan nan nan nan nan nan nan nan nan nan nan nan nan nan nan nan nan nan
40 38 38 38 40 41 40 38 36 34 33 31 29 27 26 26 24 24 24 24 23 22 21 20 19 20 22 24 25 27 27 25 27 30 33 36 38 38 37 37 nan nan nan nan nan 31 29 28 30 33 35 nan nan nan nan nan nan nan nan nan nan nan nan nan nan nan nan nan nan nan nan nan nan nan nan nan nan nan nan nan nan nan nan nan nan
41 40 38 36 37 38 37 37 36 36 34 31 29 27 26 26 25 25 25 25 24 24 22 21 21 22 24 25 26 27 26 25 26 30 34 37 39 39 39 39 37 nan nan nan nan nan nan nan 33 34 37 nan nan nan nan nan nan nan nan nan nan nan nan nan nan nan 33 32 32 33 32 nan nan nan nan nan nan nan nan nan nan nan nan nan nan
37 36 37 37 35 34 34 36 37 37 35 31 29 28 27 26 25 25 25 25 25 26 25 23 23 24 26 28 29 29 27 26 28 31 35 38 40 41 42 42 40 37 36 34 nan nan nan nan nan nan 39 40 38 36 nan nan nan nan nan nan nan nan nan nan 35 nan nan nan nan nan nan nan nan nan nan nan nan nan nan nan nan nan nan nan nan
33 35 36 38 35 33 32 34 35 36 34 32 29 28 27 26 26 26 26 25 25 27 27 26 25 25 27 29 30 31 30 30 31 34 36 39 41 43 45 42 39 37 36 34 nan nan nan nan nan nan 41 39 37 35 33 nan nan nan nan nan nan nan 41 39 34 31 32 32 32 32 nan nan nan nan nan nan nan nan nan nan nan nan nan nan nan
34 36 38 38 35 33 32 33 34 34 33 31 29 27 26 26 26 26 26 25 27 28 28 27 27 28 28 29 30 30 31 32 33 35 37 39 41 42 42 40 39 38 36 33 31 31 nan nan 36 38 nan 36 34 34 nan 34 nan nan nan nan nan 42 40 36 33 31 31 32 32 32 33 32 nan nan nan nan nan nan nan nan nan nan nan nan nan
38 39 40 38 35 34 34 35 34 32 30 29 28 26 25 27 28 28 26 26 28 29 29 29 28 28 28 29 30 32 34 36 38 40 42 43 44 42 40 40 40 37 33 32 32 33 33 nan nan nan nan nan nan 36 36 37 40 41 41 41 41 41 39 33 29 29 32 33 32 32 32 34 33 nan nan nan nan nan nan nan nan nan nan nan nan
40 42 41 38 33 31 34 35 34 31 30 29 30 32 31 29 29 26 25 27 29 29 28 29 28 27 27 29 31 34 38 38 39 42 43 47 nan 46 42 nan 40 34 30 32 34 35 36 nan nan nan nan 34 35 38 39 40 42 42 42 42 41 40 37 32 26 29 35 36 34 31 30 31 33 30 29 nan nan nan nan nan nan nan nan nan nan
39 40 40 36 31 31 33 33 32 31 29 29 35 35 32 nan 30 27 26 28 29 28 28 28 28 28 28 29 32 34 34 35 36 42 48 51 51 48 45 41 nan nan nan 37 36 36 36 36 nan 32 33 35 37 40 41 41 41 41 40 40 39 37 33 31 29 27 33 34 32 30 26 30 32 30 nan nan nan nan nan nan nan nan nan nan nan
40 39 38 35 31 32 34 34 31 29 25 28 33 32 30 nan nan 29 27 27 27 27 27 27 27 28 28 30 32 33 35 40 41 40 44 52 55 50 45 40 37 39 nan nan nan 38 35 33 32 31 33 36 37 39 40 40 40 38 39 37 37 34 31 28 29 29 30 32 31 29 25 27 31 nan nan nan nan nan nan nan nan nan nan nan nan
38 35 34 33 31 32 34 34 30 25 20 26 31 31 nan nan nan nan 26 27 28 27 27 27 28 27 28 29 31 33 36 37 39 44 50 50 46 46 43 41 41 45 47 45 45 42 39 36 33 32 34 37 37 36 36 38 38 38 38 36 31 28 28 28 29 27 27 29 27 27 23 26 31 nan nan nan nan nan nan nan nan nan nan nan nan
37 33 33 35 33 31 33 33 30 24 20 27 31 30 nan nan nan nan 25 27 28 29 29 29 28 28 28 30 30 32 34 36 41 48 50 48 46 42 39 38 40 40 42 47 47 45 42 40 37 35 34 35 34 34 35 38 37 37 36 32 28 27 27 27 26 25 25 27 25 26 22 25 nan nan nan nan nan nan nan nan nan nan nan nan nan
36 34 33 35 32 31 34 34 30 25 22 31 30 27 nan nan nan nan 27 28 28 29 31 30 28 28 30 30 32 34 35 38 46 58 52 46 43 42 40 41 41 42 42 44 46 40 36 33 32 31 31 33 38 37 38 39 38 38 36 34 32 30 29 28 26 26 24 25 26 27 24 nan nan nan nan nan nan nan nan nan nan nan nan nan nan
36 36 34 34 31 34 37 34 30 26 23 31 30 27 26 nan nan 28 29 29 30 31 31 29 27 28 31 33 37 40 41 44 51 59 51 48 43 41 42 43 45 45 42 43 48 45 41 nan nan nan nan nan nan nan nan nan nan nan nan 32 30 30 28 26 26 25 23 23 nan 26 nan nan nan nan nan nan nan nan nan nan nan nan nan nan nan
35 35 36 31 31 37 38 32 31 28 26 31 34 30 30 nan nan 30 29 30 31 32 31 29 28 28 30 35 41 42 43 48 52 50 nan 50 44 42 43 44 45 44 43 43 42 44 42 38 nan nan nan nan nan nan nan nan nan nan 35 31 28 27 24 24 nan nan 21 nan nan nan nan nan nan nan nan nan nan nan nan nan nan nan nan nan nan
34 33 34 32 31 36 36 32 32 29 26 33 40 35 36 38 34 31 30 30 31 31 31 29 27 28 32 40 45 45 46 46 45 49 nan 50 44 44 45 45 44 43 42 41 39 34 35 37 37 36 35 38 39 38 38 nan nan nan nan 32 29 28 24 nan nan nan nan nan nan nan nan nan nan nan nan nan nan nan nan nan nan nan nan nan nan
Wind_Direction
60 56 54 57 57 56 61 60 58 59 58 58 58 58 55 49 47 50 49 51 55 51 44 42 37 34 28 28 27 26 28 30 30 27 29 29 27 349 354 356 353 343 337 335 332 333 327 322 317 313 305 300 291 273 251 228 238 261 276 281 311 317 320 315 313 313 315 317 322 324 326 334 338 350 10 21 21 17 13 29 56 66 87 118 134
46 45 47 46 48 48 49 50 44 43 47 49 45 47 45 41 36 38 43 45 46 45 45 42 39 36 31 31 27 25 20 22 20 21 23 23 22 354 354 0 6 357 349 342 340 335 327 320 308 306 321 322 306 290 270 259 241 248 278 293 307 324 321 314 313 312 314 313 315 320 326 331 341 345 356 27 33 24 14 27 40 64 93 124 132
56 50 44 38 36 37 39 35 32 349 54 36 27 34 34 32 23 29 29 31 33 32 38 39 33 30 26 25 24 18 16 16 19 16 18 16 14 11 349 355 5 9 4 353 345 342 332 313 310 312 323 330 333 323 298 272 266 263 248 275 286 290 300 304 308 312 316 318 316 316 321 331 338 347 352 3 37 38 22 34 48 66 90 125 143
56 46 39 29 30 31 30 23 13 352 9 25 21 23 22 19 16 14 17 20 20 22 27 30 27 23 21 19 14 13 10 6 10 12 14 12 12 7 1 345 356 7 11 3 353 347 340 328 318 313 314 315 327 336 332 306 272 263 263 252 253 248 252 256 275 315 324 321 316 316 319 326 337 344 352 6 15 23 24 29 52 69 88 114 141
31 39 32 28 26 23 26 10 349 1 1 1 16 17 13 13 8 3 5 9 10 15 15 19 15 11 16 11 7 4 4 1 359 2 5 6 7 6 1 352 342 358 3 10 2 355 348 344 328 316 318 325 322 326 342 346 326 284 269 264 256 253 252 263 273 275 295 305 308 314 313 317 331 347 354 2 15 20 11 13 34 56 78 102 127
29 25 27 22 18 13 16 357 353 356 357 357 4 5 12 2 355 355 354 359 1 5 6 9 10 2 6 1 3 357 354 356 355 355 355 357 358 358 359 352 346 344 350 2 7 4 0 354 335 318 317 313 304 316 335 349 348 322 293 265 256 254 261 263 259 261 263 261 276 286 298 303 309 332 353 360 3 16 19 10 11 27 50 81 104
13 18 22 22 16 14 353 349 352 353 353 352 359 356 356 350 346 348 343 352 354 353 360 6 7 1 358 357 359 354 352 350 349 349 349 348 348 354 351 349 344 344 350 343 350 359 2 5 354 338 340 342 342 340 337 341 339 332 324 300 274 259 257 252 247 238 242 251 251 254 263 278 285 282 13 29 9 7 19 20 17 17 26 48 82
6 3 14 19 16 7 350 344 347 350 348 349 353 350 345 344 336 339 342 340 338 351 350 356 359 359 351 352 354 352 350 346 343 345 340 339 345 343 346 345 341 342 336 344 335 335 348 351 0 357 354 353 347 339 338 338 329 316 325 332 318 276 253 245 241 234 227 231 233 232 234 241 250 244 217 137 112 51 23 26 29 23 29 34 47
4 5 12 19 13 4 351 340 347 348 347 347 348 343 342 339 338 335 331 337 345 350 348 351 351 349 353 356 349 348 351 343 342 336 335 342 341 342 339 339 335 328 338 338 338 320 340 334 352 357 360 3 0 353 342 339 329 317 318 331 336 316 263 248 244 237 230 223 220 217 210 211 231 251 237 191 136 151 119 48 27 27 32 39 40
8 360 4 18 10 358 352 336 344 349 344 344 341 335 334 333 328 327 325 332 342 341 343 338 338 348 351 348 342 346 345 343 337 335 337 336 337 334 332 327 332 330 324 322 325 325 323 331 337 349 359 7 10 359 350 344 335 315 305 307 312 305 267 245 234 227 221 219 214 206 199 189 197 211 222 197 137 124 117 93 40 24 20 37 50
1 357 358 0 353 345 339 336 340 336 339 345 340 338 332 328 330 326 330 335 333 332 330 333 337 343 349 346 341 343 343 338 334 330 332 332 328 327 328 326 325 324 323 322 322 320 315 318 327 331 333 349 359 359 355 350 316 297 292 290 290 257 238 229 225 223 228 226 231 238 229 213 205 215 233 245 91 18 356 55 55 28 22 20 47
347 349 353 349 350 338 327 324 325 333 336 340 335 335 324 329 333 332 330 333 332 326 324 324 330 334 334 337 339 338 338 332 331 326 329 329 325 323 322 321 320 317 314 315 310 307 308 304 306 310 304 323 335 325 332 324 306 271 247 238 240 238 233 233 239 239 240 251 251 247 241 233 223 217 232 245 194 181 242 242 298 360 21 20 20
340 340 346 334 331 322 317 322 327 330 328 328 322 322 325 328 328 329 327 322 320 320 313 315 322 327 326 334 331 335 332 332 325 323 322 321 323 319 316 314 311 312 310 308 308 309 308 304 302 296 298 290 313 323 309 302 297 279 249 233 233 234 245 248 259 264 256 240 233 225 217 215 214 206 207 217 232 224 198 188 202 205 267 339 354
331 332 331 325 322 317 319 321 324 322 320 316 320 322 323 328 321 324 317 308 307 300 298 311 320 311 315 322 325 328 333 333 327 322 318 319 318 315 314 311 307 305 305 306 305 304 302 299 297 292 288 289 278 288 295 290 282 262 250 245 251 246 251 260 257 255 253 247 238 231 224 221 216 213 213 215 229 232 227 199 182 196 211 247 287
330 328 322 319 318 315 317 318 318 315 316 318 317 319 317 317 318 311 310 314 308 304 297 295 302 303 318 332 323 330 330 332 328 317 316 316 312 303 301 298 298 303 303 304 301 299 296 295 294 291 287 282 282 276 275 273 263 258 257 255 261 255 248 247 250 255 259 255 252 243 232 229 226 217 217 218 222 224 228 231 220 213 209 218 215
329 327 318 317 315 315 312 310 310 310 309 312 313 316 317 317 317 314 307 309 305 297 291 290 293 300 309 311 314 327 324 326 320 316 319 314 312 303 298 302 298 297 302 298 297 296 296 296 296 294 292 284 278 275 272 266 267 267 263 258 258 254 244 242 242 245 249 258 264 256 240 236 233 228 222 220 218 216 218 223 228 221 215 219 211
329 327 321 317 316 313 308 306 306 307 306 309 312 309 311 314 310 310 308 298 299 296 298 294 297 302 303 315 318 325 312 311 317 315 314 310 306 293 nan nan nan 293 293 293 294 295 295 293 293 293 290 285 280 277 274 270 269 266 268 258 256 254 250 245 242 242 244 246 248 249 248 245 239 233 229 225 218 214 222 221 226 225 219 211 211
324 325 322 318 316 313 309 308 306 306 308 309 307 308 313 317 311 311 308 303 295 297 296 298 297 295 300 305 307 306 313 315 326 318 311 304 305 nan nan nan nan nan nan nan nan 294 296 295 297 295 289 283 278 275 275 276 274 273 nan nan nan nan nan nan 247 243 240 238 238 239 240 239 238 239 235 229 223 219 220 225 227 231 229 218 208
321 322 321 319 315 313 313 312 310 310 312 314 315 314 311 313 311 311 305 302 304 299 298 295 299 300 297 303 306 311 311 319 312 318 318 310 303 nan nan nan nan nan nan nan nan nan nan nan nan nan nan nan nan nan nan nan nan 284 nan nan nan nan nan nan nan nan 242 238 236 234 233 233 232 231 234 234 229 224 224 222 224 229 232 228 215
317 321 323 319 319 318 317 317 316 316 316 320 316 309 307 311 312 308 307 306 304 298 294 293 295 296 298 303 306 305 309 316 315 313 313 314 312 nan nan nan nan nan nan nan nan nan nan nan nan nan nan nan nan nan nan nan nan nan nan nan nan nan nan nan nan nan nan nan 238 235 232 231 230 228 229 227 223 219 219 220 222 224 228 227 219
318 321 322 320 319 319 319 320 320 320 320 321 317 311 313 314 314 312 309 306 303 296 297 294 295 293 301 307 308 314 314 314 317 320 314 313 nan nan nan nan nan nan nan nan nan nan nan nan nan nan nan nan nan nan nan nan nan nan nan nan nan nan nan nan nan nan nan nan nan nan 234 232 230 227 225 224 223 221 218 219 219 215 215 215 208
319 320 318 319 318 319 322 324 323 323 321 320 312 308 312 315 314 311 307 307 301 301 300 295 297 296 305 306 314 316 320 319 nan nan nan 315 nan nan nan nan nan nan nan nan nan nan nan nan nan nan nan nan nan nan nan nan nan nan nan nan nan nan nan nan nan nan nan nan nan nan nan nan nan 228 226 224 222 221 219 218 217 217 218 219 218
314 314 315 318 319 322 324 324 324 321 321 318 314 309 312 313 311 310 309 308 304 304 302 301 304 307 309 312 313 314 309 312 309 nan nan nan nan nan nan nan nan nan nan nan nan nan nan nan nan nan nan nan nan nan nan nan nan nan nan nan nan nan nan nan nan nan nan nan nan nan nan nan nan nan nan nan 221 221 220 219 220 219 217 221 221
311 311 317 321 322 323 325 323 322 322 320 316 310 306 305 304 307 308 308 308 307 307 308 308 312 311 314 316 319 316 314 314 nan nan nan nan nan nan nan nan nan nan nan nan nan nan nan nan nan nan nan nan nan nan nan nan nan nan nan nan nan nan nan nan nan nan nan nan nan nan nan nan nan nan nan nan nan nan 220 220 220 219 218 217 216
315 317 320 324 322 324 324 323 321 321 319 316 311 307 305 304 304 309 309 313 311 311 310 312 313 312 313 315 319 317 313 310 308 310 nan nan nan nan nan nan nan nan nan nan nan nan nan nan nan nan nan nan nan nan nan nan nan nan nan nan nan nan nan nan nan nan nan nan nan nan nan nan nan nan nan nan nan nan nan nan 220 220 218 217 218
317 319 318 321 321 322 323 324 322 320 319 316 313 309 309 307 305 308 312 312 312 313 312 312 313 314 314 318 323 324 320 314 312 310 nan nan nan nan nan nan nan nan nan nan nan nan nan nan nan nan nan nan nan nan 308 nan nan nan nan nan nan nan nan nan nan nan nan nan nan nan nan nan nan nan nan nan nan nan nan nan nan nan 219 217 216
315 315 316 316 319 320 322 323 322 320 318 316 313 311 310 309 305 307 308 309 313 314 313 314 313 312 315 319 321 325 323 318 nan 317 316 nan nan nan nan nan nan nan nan nan nan nan nan nan nan nan nan nan nan nan 306 303 nan nan nan 313 nan nan nan nan nan nan nan nan nan nan nan nan nan nan nan nan nan nan nan nan nan nan nan 219 217
310 311 314 315 317 320 320 322 321 320 316 315 313 310 309 309 307 306 309 309 314 317 312 310 311 313 317 320 322 324 322 317 316 318 320 320 319 315 nan nan nan nan nan nan nan nan nan nan nan nan nan nan nan nan nan 306 305 308 321 314 nan nan nan nan nan nan nan nan nan nan nan nan nan nan nan nan nan nan nan nan nan nan nan nan nan
306 307 310 312 315 318 318 319 319 318 316 313 312 309 306 308 308 307 308 313 315 314 310 309 310 312 314 321 324 325 323 318 317 318 319 321 322 320 318 315 nan nan nan nan nan nan nan nan nan nan nan nan 295 293 294 297 nan 306 nan nan nan nan nan nan nan nan nan nan nan nan nan nan nan nan nan nan nan nan nan nan nan nan nan nan nan
304 305 307 310 312 314 313 314 316 317 316 313 312 308 305 305 306 305 307 310 313 312 312 312 313 311 314 320 325 329 329 327 324 322 320 320 320 321 320 320 317 315 nan nan nan nan nan nan nan nan nan nan nan nan 294 294 nan 303 301 302 303 nan nan nan nan nan nan nan nan nan nan nan nan nan nan nan nan nan nan nan nan nan nan nan nan
307 306 307 309 310 310 310 312 313 316 315 314 310 306 304 302 303 305 307 311 313 313 312 313 311 309 312 322 325 329 332 333 330 328 325 324 322 320 319 318 318 316 311 nan nan nan nan nan nan nan 297 296 294 294 296 297 296 297 299 299 302 301 nan nan nan nan nan nan nan nan nan nan nan nan nan nan nan nan nan nan nan nan nan nan nan
308 309 310 311 309 308 309 311 311 313 314 313 311 307 303 302 303 304 303 308 311 311 309 309 308 305 305 312 320 325 328 330 332 332 331 329 324 321 319 316 316 314 311 308 nan 301 nan nan nan nan 297 295 296 296 295 295 nan 304 303 302 301 304 308 308 316 nan nan nan nan nan nan nan nan nan nan nan nan nan nan nan nan nan nan nan nan
307 308 312 314 310 306 305 304 305 306 309 310 307 305 305 305 305 303 301 304 309 309 309 310 311 307 303 302 306 314 321 328 331 333 333 332 329 326 323 319 nan nan 307 304 303 300 298 nan nan nan nan 296 298 296 295 295 297 298 nan nan nan 301 302 302 301 nan nan nan nan nan nan nan nan nan nan nan nan nan nan nan nan nan nan nan nan
309 308 310 309 308 306 303 301 301 303 305 305 304 302 304 305 306 302 302 306 309 311 310 309 311 310 307 303 300 301 308 318 325 330 330 nan nan nan nan nan nan nan nan 301 298 296 296 nan nan nan nan nan nan 294 nan 292 293 nan nan nan nan nan 299 297 297 295 nan nan nan nan nan nan nan nan nan nan nan nan nan nan nan nan nan nan nan
306 306 305 303 303 305 302 299 299 302 304 304 302 300 302 305 303 299 298 301 305 307 309 310 310 308 309 305 301 299 300 307 316 323 325 327 328 nan nan nan nan nan nan nan 295 293 293 294 nan nan nan nan nan nan 290 nan nan nan nan nan nan nan 293 293 293 293 292 nan nan nan nan nan nan nan nan nan nan nan nan nan nan nan nan nan nan
306 304 303 301 301 304 304 300 299 302 305 304 301 301 302 303 301 297 296 299 302 304 305 307 307 307 308 307 304 302 300 303 309 316 321 324 327 325 324 321 319 316 309 nan 297 291 289 290 293 nan nan 289 nan nan nan nan nan nan nan nan nan nan nan nan 291 290 287 nan nan nan nan nan nan nan nan nan nan nan nan nan nan nan nan nan nan
311 311 307 303 302 304 304 301 298 302 305 304 302 302 301 300 300 296 296 299 303 305 305 304 305 306 306 307 306 305 303 304 308 314 317 322 324 324 324 322 nan nan nan nan nan 293 289 289 290 292 290 nan nan nan nan nan nan nan nan nan nan nan nan nan nan nan nan nan nan nan nan nan nan nan nan nan nan nan nan nan nan nan nan nan nan
322 324 320 315 309 307 306 303 300 302 303 301 302 302 301 299 297 296 297 300 303 305 305 305 306 306 307 310 311 310 307 306 309 314 318 321 322 324 324 321 319 nan nan nan nan nan nan nan 290 291 292 nan nan nan nan nan nan nan nan nan nan nan nan nan nan nan 280 276 272 272 275 nan nan nan nan nan nan nan nan nan nan nan nan nan nan
323 325 324 323 318 313 311 308 306 305 302 299 299 299 298 297 296 297 299 300 304 306 306 307 308 310 312 313 314 314 311 309 312 315 317 320 321 323 322 320 318 317 313 307 nan nan nan nan nan nan 292 295 294 290 nan nan nan nan nan nan nan nan nan nan 286 nan nan nan nan nan nan nan nan nan nan nan nan nan nan nan nan nan nan nan nan
328 328 325 325 325 321 318 313 310 308 304 300 299 297 295 295 296 299 300 301 305 309 308 307 308 309 312 314 315 315 312 310 313 315 317 318 321 322 320 318 317 317 312 305 nan nan nan nan nan nan 294 296 297 294 290 nan nan nan nan nan nan nan 288 288 287 282 277 271 267 264 nan nan nan nan nan nan nan nan nan nan nan nan nan nan nan
327 328 325 326 326 322 318 312 308 309 309 303 297 295 294 297 298 299 299 301 306 308 307 305 305 306 309 312 313 312 311 309 310 311 313 313 318 320 318 317 316 313 308 302 300 299 nan nan 299 299 nan 298 296 292 nan 291 nan nan nan nan nan 289 288 289 289 285 276 269 267 266 266 261 nan nan nan nan nan nan nan nan nan nan nan nan nan
322 320 321 323 325 322 316 311 308 309 308 300 295 298 292 291 298 298 297 299 304 305 304 302 302 304 308 309 307 307 303 305 309 315 319 322 322 321 317 314 314 311 306 304 305 303 301 nan nan nan nan nan nan 293 292 293 295 297 296 292 289 286 287 288 287 282 276 271 266 265 266 265 261 nan nan nan nan nan nan nan nan nan nan nan nan
318 313 314 317 320 319 317 312 311 310 306 298 298 297 295 293 294 298 296 299 304 305 303 301 299 299 301 303 301 302 305 307 311 316 321 324 nan 324 323 nan 314 310 309 309 308 305 303 nan nan nan nan 291 293 295 296 295 296 294 292 290 289 288 289 289 283 273 274 272 269 264 263 264 262 258 256 nan nan nan nan nan nan nan nan nan nan
311 308 311 312 313 315 314 313 311 308 302 299 299 301 300 nan 300 301 303 304 306 305 302 299 296 296 298 297 297 297 300 305 307 314 322 325 324 324 324 322 nan nan nan 311 307 304 303 302 nan 298 294 293 295 298 298 296 293 292 292 291 292 291 291 290 282 270 268 270 268 263 259 263 263 260 nan nan nan nan nan nan nan nan nan nan nan
311 308 307 309 308 311 312 311 308 302 295 297 303 304 305 nan nan 313 311 313 311 308 303 299 295 293 293 294 295 296 297 304 309 317 318 317 320 324 323 320 317 315 nan nan nan 312 305 304 303 301 298 297 299 299 297 295 293 295 292 293 294 293 290 284 276 271 271 271 269 266 260 258 260 nan nan nan nan nan nan nan nan nan nan nan nan
311 306 305 308 306 308 310 309 303 295 292 294 303 305 nan nan nan nan 316 319 316 312 306 299 295 294 294 294 295 296 299 304 311 316 316 315 314 314 313 311 310 315 320 322 322 321 314 306 305 302 302 303 303 300 297 297 297 295 294 295 291 286 281 278 272 274 278 278 275 268 260 262 264 nan nan nan nan nan nan nan nan nan nan nan nan
312 304 305 305 305 307 308 307 300 289 281 292 300 304 nan nan nan nan 315 316 314 310 307 304 299 296 293 292 292 294 298 306 311 311 313 312 311 311 310 310 310 310 310 311 313 312 308 307 307 307 306 306 304 302 300 298 296 295 295 294 288 281 277 277 281 289 288 288 285 278 270 267 nan nan nan nan nan nan nan nan nan nan nan nan nan
306 303 301 300 305 306 306 303 296 286 276 290 296 303 nan nan nan nan 311 311 310 307 305 303 298 293 291 290 291 295 299 305 311 309 311 311 310 311 313 313 312 309 306 311 315 315 311 304 301 302 302 294 290 296 295 295 296 297 296 296 292 286 283 283 285 286 285 283 281 279 273 nan nan nan nan nan nan nan nan nan nan nan nan nan nan
308 305 302 305 306 305 304 298 289 280 269 281 293 298 299 nan nan 307 308 308 308 307 304 300 294 292 290 293 295 296 300 308 309 309 310 308 310 313 314 312 309 310 313 311 314 316 310 nan nan nan nan nan nan nan nan nan nan nan nan 295 295 292 287 283 284 283 280 273 nan 278 nan nan nan nan nan nan nan nan nan nan nan nan nan nan nan
306 306 303 304 305 304 302 290 280 276 269 273 285 287 289 nan nan 303 303 306 308 305 301 296 291 292 296 301 301 302 306 309 310 312 nan 310 312 313 312 312 312 312 311 310 307 307 313 312 nan nan nan nan nan nan nan nan nan nan 305 305 301 296 291 285 nan nan 276 nan nan nan nan nan nan nan nan nan nan nan nan nan nan nan nan nan nan
304 304 307 311 310 301 293 280 268 267 261 266 279 282 286 291 296 298 301 304 306 303 297 293 293 296 300 304 309 307 307 309 304 304 nan 312 313 313 312 311 312 312 309 306 305 303 303 306 309 309 311 316 315 312 311 nan nan nan nan 315 309 303 295 nan nan nan nan nan nan nan nan nan nan nan nan nan nan nan nan nan nan nan nan nan nan